Regional Weather Roundup
Issued by NWS

Home | Current Version | Previous Version | Graphics & Text | Print | Product List | Glossary On
Versions: 1 2 3 4 5 6 7 8 9 10 11 12 13 14 15 16 17 18 19 20 21 22 23 24 25 26 27 28 29 30 31 32 33 34 35 36 37 38 39 40 41 42 43 44 45 46 47 48 49 50
000
ASUS43 KMPX 020310
RWRMN
WEATHER ROUNDUP FOR MINNESOTA
NATIONAL WEATHER SERVICE TWIN CITIES/CHANHASSEN MN
1000 PM CDT MON JUN 01 2015


NOTE: "FAIR" INDICATES FEW OR NO CLOUDS BELOW 12,000 FEET WITH NO
SIGNIFICANT WEATHER AND/OR OBSTRUCTIONS TO VISIBILITY. N/A MEANS
CURRENT SKY AND/OR WEATHER CONDITIONS ARE NOT AVAILABLE.

MNZ060>063-068>070-020400-
   Twin Cities Metro

CITY           SKY/WX    TMP DP  RH WIND       PRES   REMARKS
TWIN CITIES    PTCLDY    62  39  42 SE9       30.11S
ST PAUL        CLEAR     62  45  53 SE8       30.12S
CRYSTAL        CLEAR     64  41  42 SE8       30.10S
BLAINE         CLEAR     63  45  51 SE7       30.11S
LAKEVILLE      CLEAR     59  43  55 SE6       30.11F
EDEN PRAIRIE   CLEAR     62  41  46 SE10      30.10S
SOUTH ST PAUL  CLEAR     62  43  49 CALM      30.12S
LAKE ELMO      FAIR      59  45  58 SE5       30.13S
$$
MNZ001>005-007-008-013>017-022>024-027-028-020400-
   Northwest Minnesota

CITY           SKY/WX    TMP DP  RH WIND       PRES   REMARKS
BEMIDJI        CLEAR     59  37  44 SE10      30.03R
HALLOCK        CLOUDY    66  46  48 SE15      29.89S
ROSEAU         MOCLDY    63  48  59 SE8       29.96S
WARROAD        PTCLDY    61  48  63 SE9       29.97S
THIEF RVR FALL PTCLDY    63  45  51 SE14      29.95S
CROOKSTON      FAIR      64  46  52 SE17      29.92S
FOSSTON        CLEAR     61  45  55 SE10G17   29.98S
DETROIT LAKES  CLEAR     63  46  55 SE13      30.00S
MOORHEAD       CLEAR     66  46  48 SE13      29.93S
PARK RAPIDS    CLOUDY    63  38  39 SE12      30.03S
MAHNOMEN       FAIR      61  46  56 SE12G18   29.97S
$$
MNZ006-009>011-018-025>026-020400-
   North Central Minnesota

CITY           SKY/WX    TMP DP  RH WIND       PRES   REMARKS
BAUDETTE       MOCLDY    60  40  47 SE8       30.00S
FLAG ISLAND    CLOUDY    61  50  67 S17       29.96S
INTL FALLS     CLOUDY    63  38  39 VRB5      30.04S
WASKISH        MOCLDY    61  41  48 SE6       30.03R
BIG FORK       MOCLDY    61  37  41 S8        30.08R
LONGVILLE      CLOUDY    59  37  44 SE6       30.06S
GRAND RAPIDS   MOCLDY    59  36  41 SE6       30.10R
CRANE LAKE     MOCLDY    57  39  51 SE3       30.10R
ORR            CLOUDY    61  34  36 S9        30.06R
COOK           CLOUDY    61  39  44 SE9       30.10S
WALKER         CLOUDY    60  36  40 SE6       30.04S
$$
MNZ012-019>021-037-020400-
   Northeast Minnesota

CITY           SKY/WX    TMP DP  RH WIND       PRES   REMARKS
DULUTH         PTCLDY    48  28  46 E12       30.14F
ELY            MOCLDY    52  28  40 SE9       30.14R
HIBBING        CLOUDY    54  37  52 SE12      30.12R
EVELETH        PTCLDY    52  32  46 SE10      30.15R
DULUTH HARBOR  CLEAR     45  37  76 E12       30.17S
TWO HARBORS    CLEAR     46  34  61 N3        30.15S
SILVER BAY     PTCLDY    43  28  56 CALM      30.15F
GRAND MARAIS     N/A     48  33  56 NE3       30.17F
G MARAIS ARPRT CLEAR     46  25  42 E7        30.18S
$$
MNZ029>031-032-039>041-046>048-054>057-064-020400-
   West Central Minnesota

CITY           SKY/WX    TMP DP  RH WIND       PRES   REMARKS
FERGUS FALLS   CLEAR     66  45  45 SE16      29.97S
WHEATON        PTCLDY    63  48  59 SE13      29.96S
MORRIS         PTCLDY    66  46  48 SE17      29.98S
ALEXANDRIA     CLEAR     63  42  46 SE13      30.04S
ELBOW LAKE     CLOUDY    65  46  48 SE14      29.98S
WADENA         CLEAR     59  43  55 SE9       30.03S
GLENWOOD       CLEAR     61  45  55 SE9       30.04S
APPLETON       CLEAR     70  45  40 SE12      29.98S
BENSON         PTCLDY    66  39  37 S14       30.00F
ORTONVILLE     PTCLDY    68  46  45 SE10      29.96S
MADISON        CLEAR     68  45  42 SE14      29.98S
WILLMAR        FAIR      66  43  42 SE15      30.05S
$$
MNZ033>034-036-042>043-049>051-058-059-020400-
   Central Minnesota

CITY           SKY/WX    TMP DP  RH WIND       PRES   REMARKS
ST CLOUD       CLEAR     60  39  45 E6        30.08F
SAUK CENTRE    FAIR      61  44  53 E9        30.05S
PAYNESVILLE    PTCLDY    61  41  48 E9        30.06S
AITKIN         MOCLDY    59  39  47 SE6       30.07F
PINE RIVER     MOCLDY    57  39  51 SE6       30.09S
BRAINERD       CLEAR     58  38  47 SE6       30.07F
STAPLES        CLOUDY    61  37  41 SE6       30.05S
LONG PRAIRIE   FAIR      61  41  48 E10       30.05F
LITTLE FALLS   MOCLDY    61  34  36 E8        30.07S
LITCHFIELD     MOCLDY    64  39  39 SE9       30.08R
BUFFALO        CLOUDY    63  39  41 E3        30.10S
MAPLE LAKE     CLOUDY    64  44  47 SE5       30.10S
$$
MNZ037-044-045-052-053-020400-
   East Central Minnesota

CITY           SKY/WX    TMP DP  RH WIND       PRES   REMARKS
PRINCETON      PTCLDY    59  43  55 E5        30.11S
MORA           PTCLDY    55  37  50 CALM      30.13S
CAMBRIDGE      CLEAR     61  45  55 SE3       30.10S
RUSH CITY      MOCLDY    54  41  62 CALM      30.12S
MOOSE LAKE     CLEAR     46  34  61 NE3       30.12S
HINCKLEY       FAIR      52  46  82 CALM      30.12S
CLOQUET        MOCLDY    45  28  53 CALM      30.14S
MCGREGOR       CLOUDY    54  41  62 E7        30.11S
$$
MNZ071>073-080-081-089-090-097-098-020400-
   Southwest Minnesota

CITY           SKY/WX    TMP DP  RH WIND       PRES   REMARKS
MONTEVIDEO     CLEAR     68  45  42 S13       30.01S
GRANITE FALLS  CLEAR     67  43  40 SE13      30.03S
CANBY          CLEAR     65  48  55 SE8       29.99S
MARSHALL       PTCLDY    66  45  45 S14       30.01S
REDWOOD FALLS  CLEAR     66  41  40 SE15      30.03F
OLIVIA         CLEAR     64  39  39 SE10      30.04S
PIPESTONE      PTCLDY    66  46  48 S10       30.02S
WINDOM         CLEAR     64  43  45 SE9       30.06S
WORTHINGTON    PTCLDY    66  45  45 SE12      30.05F
JACKSON        PTCLDY    64  43  45 SE10      30.08S
TRACY          PTCLDY    67  47  48 SE10      30.03S
SLAYTON        PTCLDY    65  45  48 SE12      30.04S
$$
MNZ065>067-074>077-082>085-091>093-020400-
   South Central Minnesota

CITY           SKY/WX    TMP DP  RH WIND       PRES   REMARKS
MANKATO        CLEAR     63  39  42 SE9       30.10S
NEW ULM        CLEAR     63  37  39 SE9       30.07S
ST JAMES       CLEAR     64  39  39 SE9       30.08F
FAIRMONT       CLEAR     63  36  36 SE10      30.09S
GLENCOE        CLEAR     64  41  43 SE8       30.08S
FARIBAULT      CLEAR     61  45  55 SE8       30.12S
OWATONNA       CLEAR     61  39  44 SE8       30.12S
WASECA         CLEAR     55  41  58 SE8       30.12S
ALBERT LEA     PTCLDY    63  39  42 SE7       30.12S
$$
MNZ078>079-086>088-094>096-020400-
   Southeast Minnesota

CITY           SKY/WX    TMP DP  RH WIND       PRES   REMARKS
ROCHESTER      PTCLDY    54  42  64 SE8       30.16R
RED WING       PTCLDY    57  45  62 E3        30.13S
STANTON        CLEAR     62  41  45 SE8       30.11S
DODGE CENTER   PTCLDY    61  43  51 SE9       30.14S
WINONA         PTCLDY    55  43  62 SE5       30.17R
AUSTIN         PTCLDY    55  43  62 SE5       30.14R
PRESTON        PTCLDY    58  37  46 SE6       30.16S
$$
ABBREVIATIONS USED IN REMARKS
   TC - TEMPERATURES IN CELSIUS
  WCI - WIND CHILL INDEX
   HX - HEAT INDEX
  VSB - VISIBILITY
$$



USA.gov is the U.S. government's official web portal to all federal, state and local government web resources and services.